RH
36 39 40 40 35 35 42 40 34 29 27 26 26 26 25 31 47 56 47 37 47 77 71 56 52 52 79 99 98 97 98 100 100 100 100 100 92 93 100 98 96 100 100
34 37 40 42 41 41 42 41 36 30 30 34 43 42 38 37 38 40 53 71 52 74 87 66 56 76 98 95 93 90 96 100 96 99 99 100 100 100 98 98 99 99 97
31 33 35 35 35 33 36 40 39 37 34 40 56 64 61 59 58 50 44 62 75 60 90 99 81 85 97 98 74 96 99 94 99 100 86 99 96 100 95 93 99 97 92
25 26 27 29 31 33 35 39 39 40 50 62 78 87 92 86 76 78 86 84 78 74 76 88 100 100 97 100 85 98 96 100 98 100 92 86 84 96 100 100 97 92 82
28 30 31 32 34 37 38 40 61 70 71 77 87 92 96 98 88 87 86 83 84 90 88 84 96 99 96 99 99 98 100 100 97 100 98 90 84 80 84 97 98 97 87
30 31 33 35 38 40 43 66 76 80 80 82 86 88 90 90 81 78 81 84 83 85 91 87 91 93 97 99 100 97 99 92 92 100 100 97 86 78 78 78 93 91 96
33 34 36 38 40 52 58 70 85 85 85 89 87 86 82 82 80 83 88 82 90 84 90 91 84 94 96 99 100 100 99 99 99 97 99 94 91 79 83 74 79 90 92
35 36 37 43 62 70 76 83 81 88 88 94 88 92 91 87 78 84 83 87 93 88 88 92 88 90 93 100 98 99 100 99 99 99 99 99 93 85 79 72 60 84 85
37 37 40 58 72 74 78 80 88 86 90 89 95 93 92 96 96 91 90 91 96 98 98 91 92 98 95 99 97 98 100 100 100 100 98 100 96 93 83 73 72 65 71
37 38 43 69 75 79 78 86 86 92 90 88 91 87 82 83 95 96 97 99 98 99 97 98 89 99 96 99 98 99 100 99 100 100 100 100 100 93 86 87 70 57 46
37 40 46 69 79 75 79 89 93 96 87 89 82 78 77 83 96 89 81 90 91 100 98 96 92 96 98 96 99 100 100 100 100 100 100 100 98 99 94 85 70 62 62
37 41 50 70 88 85 93 97 95 88 87 86 88 88 83 96 96 90 98 91 97 98 98 98 94 93 100 100 100 98 100 100 100 100 100 100 98 98 92 82 70 73 78
38 42 52 72 88 95 99 100 98 92 86 97 100 100 100 99 91 87 92 97 95 92 100 99 97 90 100 98 100 99 100 100 100 100 100 99 100 99 91 94 86 80 70
45 45 52 79 91 99 100 98 95 89 96 99 100 98 100 98 92 96 95 93 100 94 98 97 96 95 100 100 99 100 100 100 100 100 98 100 89 96 87 82 80 58 44
47 50 55 86 98 99 99 98 92 98 100 100 100 100 100 97 99 99 100 98 100 98 100 98 93 100 99 97 99 100 99 100 97 99 100 95 91 90 79 50 46 49 50
51 51 64 93 98 100 99 99 97 98 99 100 100 100 100 98 98 99 100 100 100 97 98 100 100 100 93 100 100 99 99 97 100 94 90 88 77 48 44 44 45 35 22
53 58 92 99 99 100 100 98 98 100 100 100 100 99 100 99 99 99 99 100 100 100 100 100 100 100 100 100 100 100 98 94 94 89 80 52 37 25 18 15 14 14 14
53 73 99 100 99 99 98 98 98 100 100 99 100 100 100 99 99 100 99 100 100 100 100 100 100 100 100 100 99 95 91 90 73 59 53 55 26 16 16 16 16 18 19
53 74 96 98 99 100 98 99 93 100 100 100 99 100 100 99 100 100 99 99 100 100 100 100 100 99 99 99 95 94 97 89 86 70 35 17 14 14 16 19 20 20 20
54 62 95 98 100 99 98 98 89 100 99 99 99 100 99 99 99 100 99 98 99 99 100 100 100 99 97 93 84 78 66 59 32 21 19 18 18 22 23 22 21 23 25
56 62 93 99 99 99 97 97 94 99 99 100 100 100 100 99 100 100 100 100 100 99 100 100 99 98 82 50 42 50 40 27 21 18 20 23 24 24 24 24 26 31 40
58 60 92 99 99 100 97 99 93 99 100 100 100 100 100 100 100 99 100 100 100 99 96 77 58 41 34 28 27 25 21 18 17 20 22 25 27 29 28 36 61 57 37
60 60 90 99 99 99 99 99 99 99 100 100 99 100 100 99 99 100 100 100 100 80 60 53 32 31 31 29 28 26 25 23 21 25 34 40 29 30 52 70 39 36 37
60 60 82 100 99 99 100 99 97 99 100 99 99 99 99 99 100 100 100 100 97 95 76 45 32 30 28 28 28 25 25 26 36 59 60 50 49 58 41 32 34 37 39
60 61 78 100 99 99 99 100 100 100 99 98 99 99 99 99 99 98 96 88 88 71 48 29 25 34 37 39 44 40 63 72 61 41 40 46 46 33 30 29 31 34 38
61 64 71 100 99 100 100 99 100 100 100 99 98 99 97 95 70 52 48 41 40 48 63 69 66 42 63 78 87 96 94 75 49 39 34 35 29 27 27 26 28 33 38
Wind_Speed
7 7 6 4 6 8 11 14 19 22 27 33 31 28 26 23 22 24 26 25 25 27 26 27 23 20 21 27 27 35 25 29 35 36 31 23 19 19 23 25 20 20 19
4 3 5 7 11 14 19 22 25 30 32 31 28 26 27 27 27 26 27 21 24 27 29 30 27 23 24 27 28 30 31 35 37 37 34 21 21 20 24 24 22 24 21
3 4 5 9 14 19 22 27 33 35 33 31 27 26 25 26 26 24 23 27 24 26 29 32 30 28 28 31 29 32 36 37 40 38 25 18 11 29 25 24 21 19 18
7 9 12 15 19 21 23 27 33 36 34 28 24 24 24 24 24 22 20 19 24 27 28 32 31 31 31 32 31 36 35 40 42 40 27 25 18 26 18 25 24 21 21
12 13 15 17 21 22 24 29 30 30 27 26 24 23 24 23 22 23 23 23 25 25 29 26 31 33 30 33 31 32 33 37 44 47 39 27 13 26 23 26 28 25 22
14 14 16 20 24 25 26 26 29 28 25 20 18 21 22 23 24 23 24 26 27 27 28 29 29 33 31 32 35 34 33 36 40 45 40 31 28 23 23 19 32 29 23
13 17 20 23 23 23 24 28 26 28 23 20 20 20 23 25 26 25 25 25 28 26 28 30 29 35 33 33 34 37 35 38 44 41 43 32 27 26 23 21 26 29 25
15 19 20 21 22 23 29 29 27 25 21 20 20 22 24 24 24 26 28 28 29 29 28 30 30 33 36 35 32 34 35 36 40 40 39 38 30 27 26 24 21 21 27
15 18 19 20 21 28 32 31 25 23 21 21 21 22 20 22 23 26 26 28 31 31 28 31 31 31 34 34 29 31 32 40 37 38 37 39 33 23 20 21 15 17 20
16 19 21 18 25 30 30 24 21 18 22 24 24 24 24 24 25 28 27 29 31 29 28 31 32 29 33 32 32 32 28 29 31 33 36 32 28 26 24 17 16 17 12
18 19 21 23 28 30 26 24 21 22 24 24 27 26 26 24 25 28 31 31 30 27 26 32 32 29 33 30 31 33 29 30 36 34 31 31 27 22 20 20 20 19 15
17 19 19 24 27 31 26 22 24 24 29 31 29 27 24 19 21 26 23 19 23 22 25 34 29 29 30 30 30 31 28 27 32 30 28 27 27 26 22 20 24 18 16
23 20 21 27 28 28 23 24 23 29 33 27 24 20 10 14 19 21 19 9 13 19 20 34 31 29 30 27 27 23 26 25 26 27 24 22 22 18 18 19 19 17 17
23 20 22 26 27 26 23 23 27 32 28 22 16 7 9 14 16 14 11 10 14 17 18 14 26 29 28 29 24 21 22 21 19 19 17 21 18 19 20 13 15 16 18
24 20 22 28 27 24 23 23 28 28 21 15 7 8 9 13 14 11 9 10 11 9 9 19 24 32 23 24 23 20 23 22 19 21 22 19 17 12 11 16 18 17 15
23 22 21 25 25 22 20 25 24 25 17 12 8 9 10 10 11 10 6 3 8 14 17 23 32 26 24 24 24 19 19 18 20 21 19 16 12 14 14 14 14 12 11
23 20 21 22 20 19 21 22 23 20 13 13 9 7 8 8 6 8 5 1 4 8 15 21 22 26 26 25 24 20 21 20 20 19 18 18 15 15 16 14 13 14 13
23 18 20 20 16 17 19 18 19 15 11 10 10 8 7 7 5 6 5 6 8 13 11 16 19 28 26 24 23 23 21 18 18 18 18 16 16 15 13 14 15 14 13
21 21 17 17 14 17 16 17 17 11 9 9 10 7 7 7 5 6 10 13 14 16 22 26 26 26 26 22 22 20 19 20 20 19 19 19 19 18 16 15 15 14 12
21 22 15 14 11 16 14 15 14 11 9 8 7 6 6 5 6 9 12 15 18 19 20 23 24 23 24 17 14 12 17 21 22 21 20 18 18 17 16 13 12 11 10
21 20 14 12 10 13 12 12 11 12 10 7 6 6 7 6 6 10 13 15 15 19 22 23 24 23 21 19 14 15 17 19 22 22 21 19 16 15 14 12 11 8 6
20 20 14 10 9 10 10 9 8 10 10 6 6 7 8 9 9 10 13 14 17 22 24 26 25 21 18 15 14 14 14 18 20 22 20 18 16 14 12 10 8 4 1
20 19 13 8 9 8 7 8 6 7 7 8 9 10 11 11 11 11 13 15 18 22 25 23 21 20 18 19 17 16 16 17 17 18 17 13 13 12 9 3 4 3 3
21 19 14 8 7 6 6 4 4 7 6 10 12 12 12 12 10 12 14 17 18 21 22 19 19 20 19 19 19 19 19 18 16 13 12 10 6 5 5 4 3 2 1
21 18 13 7 7 5 4 1 2 4 6 8 11 13 13 15 18 20 21 21 19 16 16 16 17 19 19 20 16 15 14 12 9 9 9 9 8 8 7 5 3 1 4
20 18 14 9 9 8 4 2 2 2 5 10 11 13 18 19 19 18 19 17 15 16 16 13 10 12 15 11 6 7 10 8 8 9 9 9 9 7 6 5 5 5 6
Wind_Direction
188 198 217 257 285 298 295 300 295 299 304 307 304 296 289 280 271 282 285 271 252 256 260 265 259 251 231 228 229 223 226 192 195 187 185 184 198 195 195 203 202 199 191
188 264 289 291 304 303 293 287 292 301 303 304 299 294 289 284 278 268 261 268 259 244 253 256 251 236 227 226 230 230 212 195 199 197 179 156 164 185 200 207 196 196 197
39 6 317 303 295 299 301 292 299 304 307 303 297 293 292 291 291 285 269 257 261 254 241 247 247 239 228 229 229 223 224 209 201 200 188 163 175 178 191 203 199 196 204
13 332 315 304 301 301 299 292 296 302 303 302 294 292 289 285 288 282 271 273 259 262 256 245 245 238 223 228 226 227 228 216 205 201 196 198 202 182 171 189 196 208 212
343 329 320 310 307 307 300 302 309 311 301 298 291 295 289 285 297 286 275 267 256 262 259 254 238 233 228 222 226 226 217 223 215 206 200 207 194 200 188 186 195 201 214
345 335 321 313 313 311 308 313 311 312 306 301 294 289 287 287 292 288 282 271 259 250 259 251 239 235 230 224 217 230 231 225 224 219 211 203 202 193 200 205 203 204 203
348 336 326 322 320 323 309 314 311 308 301 289 287 288 286 285 290 288 284 280 278 259 251 249 243 231 231 224 223 218 228 226 222 225 211 207 220 225 212 221 200 197 204
348 335 328 326 325 318 321 319 308 309 299 299 293 287 288 286 281 281 288 285 280 269 255 253 244 235 227 227 220 218 221 226 224 230 222 219 215 211 221 221 202 193 210
344 338 332 330 326 321 324 318 312 304 298 300 298 298 295 288 287 285 283 281 278 272 258 244 240 230 228 224 226 223 226 218 210 221 222 220 203 197 212 214 226 222 202
344 340 338 326 325 329 331 327 321 306 304 301 301 295 295 292 286 285 282 278 277 274 251 237 236 226 222 221 222 217 221 223 220 221 222 206 207 207 203 212 208 201 217
342 341 337 325 332 336 333 328 326 318 314 309 301 295 289 289 286 289 293 279 280 272 239 232 231 225 220 219 214 218 218 218 204 202 196 200 208 219 211 198 189 203 215
335 339 332 327 334 333 333 326 326 324 321 310 303 305 292 284 292 303 303 279 267 251 234 231 226 215 216 215 217 209 217 211 216 224 213 213 206 200 195 191 199 213 236
338 335 336 332 340 336 332 329 332 326 323 317 314 310 302 297 305 318 301 278 266 240 236 222 211 204 207 211 212 215 216 212 214 215 208 208 194 193 198 206 213 222 232
341 333 333 334 341 337 335 338 337 330 326 324 321 334 313 317 326 314 303 269 274 265 229 194 207 201 199 203 209 200 206 202 201 202 203 189 188 194 193 208 230 235 232
339 335 331 336 340 339 338 341 339 339 341 346 5 325 319 350 343 340 332 307 233 220 188 207 206 196 190 205 191 188 192 188 192 180 182 174 177 191 208 221 223 219 210
339 335 327 337 340 340 344 343 343 349 354 1 354 340 339 342 344 360 335 333 206 214 220 188 183 184 195 177 186 185 178 183 179 180 176 176 173 194 191 187 179 175 190
335 330 327 338 340 343 344 346 345 352 358 358 357 355 352 2 1 5 11 32 173 185 183 182 178 169 160 166 166 171 168 163 164 167 166 161 170 169 169 164 166 165 159
335 325 328 337 341 342 345 347 349 357 9 12 15 12 16 9 18 26 48 92 127 141 143 162 160 147 144 151 148 154 150 150 152 156 156 164 165 160 162 161 159 156 150
332 314 329 339 342 345 347 348 350 354 359 2 12 22 24 29 51 80 104 109 118 120 132 135 134 134 135 148 151 154 150 155 155 158 160 161 154 149 152 157 153 145 141
330 317 330 340 341 347 351 351 355 6 13 9 15 39 47 57 93 113 117 121 123 125 126 126 129 138 132 140 141 166 162 159 155 152 150 149 149 146 143 147 143 140 128
329 317 328 338 337 343 352 357 7 26 22 28 55 77 76 79 101 129 133 132 128 125 125 128 128 126 124 131 147 160 158 156 153 150 147 143 142 141 137 133 123 112 69
332 319 325 334 328 340 351 1 3 20 27 45 67 93 93 106 115 127 132 136 137 135 130 129 130 131 129 126 134 141 150 150 153 147 142 138 136 135 129 115 78 51 358
331 319 320 321 318 333 342 359 8 27 38 69 88 100 105 113 120 127 131 137 140 136 133 134 133 131 130 130 132 134 138 138 139 131 126 129 130 121 93 101 156 83 43
331 314 309 304 300 337 333 6 29 65 67 92 99 104 114 123 129 130 133 141 136 133 135 140 138 137 136 134 133 138 137 137 138 139 134 114 127 154 174 163 150 129 355
325 308 302 283 277 286 339 259 35 99 102 112 121 125 123 128 129 127 124 120 120 122 128 136 139 140 137 128 119 121 123 130 125 133 150 160 184 193 187 182 197 276 340
315 302 296 265 265 258 262 247 182 138 154 138 134 142 139 133 132 128 136 139 140 142 133 128 124 132 132 130 164 172 140 147 182 187 187 196 199 204 217 236 261 286 300